Details From SMJP - Paramaribo Johan A Pengel Intl
To TNCM - St Maarten - Princess Juliana Intl
Flight Number -
Tags decoded
Created
Modified
Stats Distance 916 nm / 1,697 km
Max Altitude 0 ft / 0 m
Waypoints 7
Social Downloads 12
Likes 0
Share

Download

Looking for another format? Having issues loading an existing format? Contact us
Advertisement - Login to hide

Notes

Requested: SMJP GEKOS DAGTO IBERT KAISO AXITA ROMKI ANU ELOPO TNCM Unmatched points: DAGTO AXITA ROMKI

Route

SMJP GEKOS IBERT KAISO ANU ELOPO TNCM

ID Type Via Altitude (ft/m) Position (lat/lon) Dist (leg/tot) Name
O SMJP APT - 0 / 0 5.45283 / -55.18778 - / 0 nm Paramaribo Johan A Pengel Intl
GEKOS FIX - 0 / 0 6.93902 / -57.00000 140 / 140 nm
IBERT FIX - 0 / 0 7.81716 / -58.08032 83 / 223 nm
KAISO FIX - 0 / 0 8.91972 / -58.50722 70 / 294 nm
ANU NDB - 0 / 0 17.12588 / -61.80017 529 / 823 nm V C BIRD NDB
ELOPO FIX - 0 / 0 17.65006 / -62.55439 53 / 876 nm
O TNCM APT - 0 / 0 18.04089 / -63.10897 39 / 916 nm St Maarten - Princess Juliana Intl

Altitude Profile

Advertisement - Login to hide

Weather


0- 5 10 15 20 25 30 35+ Temperature / °C

Clouds and Precipitation
Forecast for 2024-04-15 18:00 UTC. Updated 2 months ago

Ground ~20,000 ft ~40,000 ft Winds

SMJP

Details ICAO SMJP (PBM)
Name Johan Adolf Pengel Intl
Region Suriname
Timezone America/Paramaribo (UTC-3.0)
Stats Elevation 59 ft / 18 m (AMSL)
Location 5.452850° -55.187800°
Runways 1
Magnetic Variation 17.796° W

METAR

SMJP 251900Z 09003KT 8000 -TSRA FEW008 SCT012CB BKN020 27/25 Q1011 NOSIG

Decode

TAF

TAF SMJP 251600Z 2518/2618 07007KT 9999 SCT025 TX28/2615Z TN23/2609Z PROB30 TEMPO 2518/2521 5000 TSRA FEW015CB SCT020 BECMG 2602/2603 VRB02KT FM261300 12005KT 9999 SCT012 SCT020 TEMPO 2616/2618 5000 TSRA FEW015CB SCT020

Decode

Departure Runways

ID Width Length Bearing (true/mag) Surface Threshold Overrun Markings Lighting
11 151 ft / 46 m 11,428 ft / 3,483 m 89.69° / 107.48° ASPHALT 0 ft / 0 m 230 ft / 70 m PREC-APP EDGE THRESHOLD MALSF REIL-OMNI
29 151 ft / 46 m 11,428 ft / 3,483 m 269.69° / 287.48° ASPHALT 0 ft / 0 m 197 ft / 60 m APP EDGE THRESHOLD MALSF REIL-OMNI

TNCM

Details ICAO TNCM (SXM)
Name Princess Juliana Intl
Region Caribbean Netherlands, Aruba, Curaçao, Sint Maarten
Timezone Unknown
Stats Elevation 14 ft / 4 m (AMSL)
Location 18.040900° -63.108900°
Runways 1
Magnetic Variation 14.503° W

METAR

TNCM 251900Z 09011G22KT 050V110 9999 FEW018 32/27 Q1017 NOSIG

Decode

TAF

TAF TNCM 251605Z 2518/2618 08013KT 9999 FEW016 TEMPO 2518/2524 09010G25KT

Decode

Destination Runways

ID Width Length Bearing (true/mag) Surface Threshold Overrun Markings Lighting
10 148 ft / 45 m 7,553 ft / 2,302 m 81.44° / 95.94° ASPHALT 331 ft / 101 m 164 ft / 50 m PREC-APP EDGE THRESHOLD REIL-OMNI
28 148 ft / 45 m 7,553 ft / 2,302 m 261.45° / 275.95° ASPHALT 0 ft / 0 m 200 ft / 61 m APP EDGE THRESHOLD

Popular Alternatives